Wind_Speed
72 73 73 73 72 72 72 72 72 73 73 74 74 75 75 75 75 75 76 76 77 76 76 76 76 75 75 75 75 76 78 78 78 76 75 76 78 77 79 81 82 82 83 82 80 80 79 78 78 78 77 75 75 74 73 72 71 71 69 67 64 61 60 61 63 63 65 65 65 59 51 45 47 57 59 55 56 57 55 52 53 49 43 45 44 44 44 44
72 73 74 74 75 75 75 75 75 75 75 75 75 75 75 75 75 76 76 77 78 79 78 78 78 78 77 77 76 76 77 78 78 77 77 78 78 76 77 79 81 82 83 84 82 82 82 81 80 80 79 77 76 76 75 74 73 72 70 69 65 62 63 64 64 66 69 70 65 55 46 43 50 62 61 54 57 57 54 53 51 46 43 45 44 42 43 44
73 74 74 75 76 77 78 78 78 78 78 77 77 76 76 76 76 77 77 78 79 80 80 80 80 80 80 79 78 77 77 77 77 77 78 79 79 77 77 77 78 79 82 84 84 84 83 83 82 81 80 79 78 77 77 76 74 73 72 70 66 65 66 66 67 70 73 69 60 53 44 45 57 66 60 53 59 57 55 54 47 44 45 43 43 42 42 44
75 75 75 76 77 78 79 80 81 81 82 81 80 79 78 78 78 78 78 78 79 81 82 82 82 82 82 81 80 79 78 78 77 76 77 80 80 78 77 77 77 77 79 81 82 83 84 84 83 82 81 80 80 79 79 77 75 75 74 71 69 70 68 67 72 74 73 63 57 56 45 49 64 65 59 56 60 59 56 54 44 43 45 42 43 43 41 43
77 77 77 77 78 79 80 81 82 83 84 84 84 83 82 81 81 81 81 80 80 80 82 83 84 84 84 83 82 81 80 80 77 75 76 78 78 78 78 79 79 77 78 78 78 80 82 83 84 83 82 81 81 81 80 78 77 77 76 73 73 73 70 72 78 75 68 58 56 58 50 55 63 61 61 59 59 59 55 52 43 40 44 43 44 44 42 43
78 79 79 79 79 80 81 82 83 84 85 86 87 87 86 85 85 84 84 83 82 81 82 83 85 86 86 86 84 83 83 81 77 75 76 77 77 77 78 80 80 79 79 78 77 77 78 80 82 82 82 83 83 82 82 81 79 79 78 76 76 75 73 76 79 70 61 56 59 64 58 56 60 62 64 60 59 58 52 49 41 37 43 44 42 42 41 41
79 80 81 81 81 82 82 83 84 86 87 88 89 89 90 89 89 88 87 86 85 84 83 83 85 86 88 88 87 85 84 82 79 77 78 78 77 76 77 79 79 80 80 79 78 77 77 78 78 78 80 82 83 83 83 83 81 80 80 79 78 77 76 77 77 67 59 61 67 67 60 55 59 65 65 61 59 54 49 47 39 36 45 46 41 40 41 41
79 81 82 83 83 84 84 85 86 87 88 90 90 91 92 92 92 91 91 89 88 87 85 85 85 86 88 89 89 87 85 84 83 80 79 79 78 76 76 77 78 79 79 79 79 79 79 77 76 76 77 78 81 82 83 83 81 80 81 81 80 78 78 77 75 66 61 67 70 66 61 59 63 66 65 61 57 51 48 46 38 36 44 44 39 39 40 40
80 82 84 85 85 86 86 87 88 88 90 91 92 93 93 94 95 95 94 93 91 89 88 87 87 86 87 89 90 88 87 88 86 81 78 79 79 78 77 77 77 77 77 78 79 80 79 78 77 76 76 76 78 79 80 81 80 79 81 82 80 79 80 76 72 69 66 70 70 66 65 64 64 65 64 60 56 51 46 42 36 38 43 40 36 36 38 39
79 83 85 87 88 88 89 89 90 91 92 93 94 95 96 96 97 97 97 96 94 92 91 90 90 88 87 88 88 88 89 91 88 81 79 81 81 80 79 77 76 75 75 76 77 78 78 78 78 79 78 77 77 76 77 77 76 76 79 81 79 78 79 74 71 71 69 71 71 68 69 68 66 65 63 59 55 51 44 37 34 39 42 40 39 38 38 38
78 82 85 88 90 91 92 92 93 93 94 95 96 97 98 99 100 100 99 99 97 96 94 92 92 91 88 87 86 87 90 92 89 83 80 83 83 81 80 78 77 75 75 75 75 76 77 78 79 80 79 78 78 76 75 72 71 73 75 75 75 75 75 73 72 72 70 71 71 70 72 70 67 64 61 57 55 52 46 39 38 43 40 39 44 42 40 37
77 80 84 88 91 93 94 95 96 96 97 97 98 99 101 102 102 102 102 101 100 99 97 96 95 93 90 87 84 86 91 91 89 86 86 87 86 83 81 79 77 77 76 75 75 75 76 78 79 80 79 79 79 77 75 71 69 71 69 68 70 70 70 70 70 70 70 70 71 72 71 70 67 63 59 58 58 53 47 41 41 44 41 41 45 39 36 35
76 79 82 86 90 93 96 97 98 99 100 100 101 102 103 104 105 105 105 104 103 102 101 99 98 96 92 86 84 87 91 91 90 90 91 91 88 85 83 80 79 78 78 77 76 75 75 76 77 78 79 80 79 77 75 72 71 71 67 65 67 64 62 64 66 67 67 67 69 70 70 69 65 61 60 60 58 52 47 44 39 40 42 42 41 38 37 36
73 76 79 83 86 90 94 97 99 100 101 102 103 104 105 106 106 107 107 107 106 105 104 103 101 99 93 87 86 89 91 91 91 91 92 91 89 87 85 82 80 79 78 78 78 77 76 76 76 77 77 78 77 76 75 73 72 71 67 65 64 59 57 58 61 61 60 62 65 66 68 68 62 60 60 59 56 50 46 44 41 41 41 38 35 35 39 39
70 72 75 78 81 84 88 92 95 98 100 102 103 104 105 106 107 108 109 109 109 108 107 106 103 101 95 89 90 92 92 91 90 92 93 92 91 89 87 85 83 81 79 79 79 79 77 77 76 74 74 75 75 75 75 73 72 71 67 64 62 58 55 57 58 55 55 58 60 61 64 63 58 60 60 57 54 50 47 46 45 45 44 44 40 35 37 42
67 69 72 75 77 80 82 85 88 92 95 98 100 102 104 105 106 107 109 110 111 110 109 108 105 102 97 92 93 93 92 90 90 94 95 93 92 91 89 88 85 83 81 80 80 80 79 79 76 74 74 73 72 73 73 72 70 70 66 62 62 60 57 59 57 54 55 56 55 56 58 56 55 57 57 55 54 51 49 49 48 49 50 49 44 39 38 40
63 66 69 72 75 77 79 81 83 85 87 90 93 96 98 101 103 105 107 108 110 111 110 108 107 103 98 95 97 95 93 92 92 95 96 94 92 92 91 89 88 86 83 82 81 81 81 79 77 75 74 70 69 71 72 69 67 66 64 63 64 61 59 61 58 55 55 54 52 52 53 52 49 51 52 51 53 52 51 52 51 51 50 42 36 37 38 37
60 63 66 68 71 73 75 76 78 79 81 83 85 87 89 92 96 99 102 105 106 107 108 107 106 104 100 100 101 98 96 95 94 94 95 95 94 92 91 90 90 88 86 84 82 80 80 79 79 77 73 69 67 67 64 61 62 63 64 65 66 63 61 63 60 54 54 53 50 51 52 47 43 44 47 48 50 52 51 53 52 52 49 41 34 34 35 36
58 60 63 65 67 68 69 70 71 73 74 76 78 79 81 83 86 90 94 97 99 101 103 105 105 105 104 104 104 102 99 96 93 92 92 94 95 93 92 91 90 90 88 86 83 81 80 81 81 76 70 65 63 61 57 56 62 64 65 66 66 65 63 65 61 52 54 56 51 52 50 41 38 40 43 44 46 48 50 51 53 53 51 48 40 34 34 39
56 58 60 62 63 64 65 65 66 67 68 69 70 71 73 75 78 82 85 87 89 92 96 98 101 103 105 105 105 104 100 96 94 94 94 95 97 97 96 94 92 91 90 87 85 83 83 82 77 70 65 63 62 60 57 58 63 65 66 65 65 65 64 66 62 52 55 58 53 53 46 37 37 39 40 40 40 43 47 49 51 53 53 54 48 39 38 42
55 56 58 58 59 59 59 60 61 62 63 64 65 65 66 68 71 74 76 77 79 83 86 89 93 99 103 103 104 104 101 97 96 96 97 97 99 100 98 95 93 92 90 88 87 87 85 79 71 66 66 66 65 62 59 60 63 64 64 64 64 64 64 65 62 54 56 58 54 49 42 37 38 37 35 36 36 40 44 45 47 51 54 57 57 50 43 40
53 54 54 53 53 52 52 52 53 54 56 58 59 61 62 63 65 66 68 70 72 75 78 81 85 92 100 102 102 102 100 96 95 97 98 97 98 99 98 96 94 91 90 90 90 87 82 73 67 69 72 71 67 64 62 62 63 63 63 64 64 64 63 64 64 59 56 58 55 47 41 40 37 33 33 34 37 42 45 44 44 49 53 55 58 55 46 40
49 50 50 49 48 47 47 46 46 46 48 50 52 54 56 57 59 61 63 65 67 69 71 73 76 82 92 97 98 100 100 96 96 99 100 98 97 97 97 97 94 92 92 91 88 83 76 70 70 74 75 72 68 66 65 64 64 62 62 62 60 62 62 62 66 60 53 57 57 47 42 40 35 33 33 35 37 41 44 45 45 47 50 53 54 53 46 40
45 47 46 44 42 42 42 41 41 41 42 44 45 46 48 51 53 55 58 60 61 63 65 68 70 74 83 90 93 97 99 97 99 103 102 99 97 96 96 97 95 94 92 89 86 81 75 73 75 76 75 73 70 68 66 64 64 61 60 59 58 61 60 61 67 60 52 60 58 44 41 41 38 37 36 36 37 38 41 43 45 46 48 49 49 51 45 38
43 43 42 40 39 37 37 36 36 37 38 38 39 40 42 45 46 47 50 52 54 58 63 66 66 68 76 83 84 89 96 98 101 104 103 101 99 97 96 97 97 94 91 88 85 82 79 79 79 77 75 74 71 67 65 65 64 61 58 56 56 58 59 63 69 61 55 61 56 42 42 44 42 40 39 40 40 40 40 42 43 43 45 46 46 50 44 37
41 39 38 37 35 34 33 33 32 32 33 33 34 35 38 40 40 41 43 44 47 54 59 61 62 65 72 76 77 82 90 96 101 103 103 102 100 99 98 98 97 95 91 88 86 84 82 81 80 77 75 73 70 67 65 67 66 60 55 53 53 57 63 69 68 58 55 61 55 45 45 47 45 43 42 42 42 41 39 39 40 40 42 44 44 45 41 38
39 37 36 33 32 32 30 28 27 27 28 29 30 32 34 37 36 37 39 40 44 49 52 55 61 65 71 74 75 78 83 89 97 100 101 102 102 100 99 97 97 95 93 91 89 85 83 81 79 77 75 73 70 67 66 67 64 56 52 52 55 62 69 69 63 57 58 63 59 51 49 49 47 46 44 44 42 41 40 39 40 41 42 40 39 39 38 39
39 35 34 31 28 28 26 23 23 23 24 24 27 29 31 33 34 35 37 39 43 47 48 53 61 67 72 75 73 72 77 85 93 97 98 101 102 101 98 95 94 94 94 92 87 83 81 80 78 76 74 72 71 67 65 67 61 54 53 57 62 67 67 62 58 58 61 64 61 55 52 50 47 46 45 43 40 39 42 44 44 43 41 39 39 39 37 38
38 35 32 29 26 24 22 22 21 20 20 21 23 26 28 30 31 34 37 40 45 48 50 55 61 67 71 70 68 71 79 85 89 92 96 100 102 101 98 95 93 95 94 91 87 84 81 80 79 76 74 73 71 67 66 67 60 56 59 62 65 66 62 59 58 58 61 63 60 56 55 52 49 48 45 42 41 42 45 47 46 43 39 36 37 39 36 33
36 34 31 28 26 23 21 21 20 18 17 18 20 22 25 26 30 34 38 43 47 49 52 56 60 65 67 66 69 74 78 80 83 87 93 98 100 101 100 96 95 95 93 91 89 86 83 82 80 77 74 73 70 68 71 68 60 60 64 63 63 62 60 59 58 57 61 62 59 58 58 55 53 52 47 45 46 45 45 44 43 42 39 35 36 40 35 32
36 33 30 28 26 24 22 20 18 15 14 15 17 19 21 23 27 32 37 42 46 48 52 56 59 62 64 66 71 74 75 77 80 83 88 93 98 100 100 98 96 94 94 94 92 89 85 82 80 76 74 74 73 73 72 64 60 65 66 63 63 62 58 57 56 58 61 60 58 59 60 57 55 53 50 50 50 47 46 44 43 44 42 39 40 41 35 35
37 33 30 28 26 24 21 19 16 12 11 12 13 16 18 20 23 28 33 38 43 46 50 54 57 59 61 66 70 73 75 77 77 79 83 87 89 93 95 95 93 92 92 91 90 87 82 79 78 77 78 78 76 74 69 63 65 69 65 62 61 57 54 54 57 59 59 56 56 60 62 61 59 56 54 54 52 49 48 48 47 47 46 45 46 43 41 45
39 35 31 28 25 23 20 17 14 9 8 8 10 11 14 16 20 24 29 34 38 43 48 51 54 56 59 63 68 73 76 75 73 76 80 81 83 87 90 91 89 87 86 85 85 84 80 80 81 82 81 77 73 70 65 62 66 67 61 57 54 51 49 51 54 56 55 54 56 60 63 62 61 59 56 56 55 51 50 49 48 48 48 49 50 48 50 54
40 36 32 28 26 23 19 16 13 8 5 5 6 7 9 12 16 20 25 30 35 39 44 47 49 51 54 60 66 71 72 71 72 74 75 78 82 85 87 90 90 90 88 87 86 86 83 81 79 77 73 67 66 65 61 61 65 64 59 54 51 50 48 49 52 53 52 54 57 59 61 61 61 61 58 57 57 54 51 50 49 48 51 52 53 55 58 60
41 37 33 30 27 23 19 15 12 7 4 4 5 6 8 10 13 16 20 25 31 37 40 43 45 46 51 58 64 68 68 69 72 73 73 74 78 81 85 88 89 90 90 89 89 89 84 77 73 70 67 66 67 66 63 66 68 65 59 52 50 52 50 51 54 54 55 57 58 57 58 60 61 61 59 55 56 57 55 51 49 50 52 53 53 55 59 62
42 38 34 31 28 24 20 15 12 8 4 4 6 8 9 11 12 15 18 23 29 34 38 40 42 44 49 54 61 66 68 69 71 70 70 71 72 76 80 82 83 85 86 88 90 88 81 74 70 70 70 69 68 67 67 68 68 63 57 49 49 52 52 53 56 56 57 57 56 56 57 59 59 58 59 55 53 56 55 52 52 52 52 53 54 56 56 58
43 39 35 32 28 24 20 15 12 8 4 3 7 9 12 14 15 18 22 26 29 33 36 38 41 44 48 53 59 63 66 69 69 66 66 68 70 74 77 79 82 83 83 86 88 85 78 72 69 70 71 69 68 70 69 67 66 60 52 49 53 56 55 55 56 56 57 55 54 55 57 57 56 57 58 55 52 52 51 51 55 56 56 58 60 60 58 57
43 40 36 31 27 24 19 15 12 8 5 2 5 8 11 14 17 20 23 27 30 33 35 37 40 43 47 52 57 61 64 67 67 65 65 66 68 72 77 80 82 82 81 84 86 82 76 73 72 73 72 71 72 72 66 64 65 57 52 54 57 56 54 53 52 53 54 52 51 53 54 53 54 56 57 56 55 51 47 49 55 57 59 61 60 59 59 58
43 41 37 32 27 23 19 15 11 8 4 1 2 4 7 11 15 19 23 27 30 33 34 35 37 42 46 51 55 58 62 63 64 65 65 65 67 71 74 76 77 78 80 85 85 80 76 75 75 75 73 72 72 67 61 63 63 56 54 57 56 53 52 50 49 51 51 49 48 52 52 50 51 54 55 57 57 54 49 49 53 55 56 59 59 58 59 60
45 42 38 32 27 23 18 14 11 7 4 2 3 5 7 9 12 17 22 26 30 33 35 35 35 40 46 50 53 56 59 61 62 64 64 65 66 68 69 71 73 77 82 85 82 78 76 74 73 74 73 71 68 62 60 63 61 54 52 54 53 51 50 48 49 50 50 48 49 51 50 47 51 53 53 56 56 54 53 53 54 56 56 56 56 58 61 62
45 43 38 32 27 22 17 13 10 6 5 5 6 8 10 11 12 16 20 25 30 34 36 37 37 40 44 49 52 55 58 60 61 62 62 64 66 68 70 73 76 80 84 83 79 77 76 72 73 75 72 67 64 61 62 63 59 53 52 54 53 49 48 48 48 48 48 47 49 50 48 47 51 52 52 55 55 53 54 56 57 58 60 59 58 59 62 62
45 43 38 32 27 22 17 13 10 7 6 8 9 11 12 13 14 16 20 24 30 34 36 38 40 41 43 48 53 56 58 59 60 62 63 64 65 67 70 74 78 82 83 82 79 77 73 70 73 73 68 63 62 61 62 61 58 56 56 55 52 48 49 47 44 44 45 46 48 49 48 49 51 51 52 54 55 54 54 57 59 60 61 63 61 59 59 58
45 43 39 33 28 22 16 13 10 8 8 10 12 14 15 16 17 19 22 26 30 34 35 37 40 42 44 48 53 57 59 60 60 61 62 63 64 66 70 74 78 80 80 79 78 76 71 69 70 68 63 63 64 64 63 60 57 56 56 53 50 49 48 45 44 45 46 47 49 49 49 50 50 50 51 52 55 56 54 56 59 60 61 62 59 57 56 57
44 43 40 34 28 22 17 14 11 9 11 13 14 16 17 17 18 21 24 27 30 33 35 37 39 42 45 49 54 58 60 61 61 61 61 63 65 69 72 75 77 77 76 75 74 71 68 67 66 63 61 63 65 64 62 57 55 55 53 52 50 49 47 46 48 50 50 50 51 49 49 49 48 48 49 50 54 55 53 53 55 57 59 60 59 58 58 58
42 42 40 35 28 22 17 14 12 12 14 16 17 18 20 19 19 23 27 29 32 34 35 36 38 42 46 51 55 59 61 63 63 62 62 63 66 69 72 73 74 74 73 72 70 67 65 64 62 60 59 60 59 56 52 50 53 54 51 50 50 48 46 47 50 51 49 49 49 49 49 48 48 49 48 49 52 53 52 51 52 55 59 61 62 62 62 61
39 40 39 35 28 22 18 15 14 15 17 19 20 20 22 22 20 22 26 30 33 34 34 35 37 42 49 52 57 60 62 63 62 61 61 63 65 67 68 69 71 71 71 69 66 64 63 61 60 60 60 59 56 52 50 51 53 52 49 48 49 48 46 47 48 48 47 46 47 48 48 46 47 50 50 51 52 53 52 51 52 54 60 63 62 60 61 60
37 37 37 34 28 22 19 17 15 18 20 22 23 23 24 24 23 22 23 27 32 33 33 35 37 43 50 54 57 60 61 60 58 57 58 60 62 63 65 67 67 66 65 63 61 61 61 59 60 61 61 59 57 56 55 54 53 51 48 47 49 48 45 45 46 47 47 47 47 47 47 45 44 47 49 50 51 51 52 53 51 51 54 58 57 55 56 57
34 34 34 33 28 23 20 17 17 20 23 24 25 25 25 25 25 25 24 27 31 32 33 36 38 43 48 51 53 53 52 50 50 51 53 54 55 59 63 65 64 61 60 59 59 59 59 58 60 61 60 60 60 58 55 54 52 50 47 46 48 47 44 43 45 47 48 47 47 48 48 45 44 45 46 46 48 49 50 51 50 49 51 52 52 51 52 52
31 30 31 30 27 23 19 17 19 22 24 26 28 28 27 27 26 27 26 28 31 34 37 40 41 43 45 46 47 47 45 44 46 48 49 50 54 59 61 61 59 59 59 59 59 59 59 59 61 61 61 61 60 57 54 54 52 49 46 47 49 47 45 46 48 49 49 48 48 49 48 46 46 46 46 46 47 47 47 48 49 51 51 51 52 52 52 52
29 27 27 27 26 23 19 16 18 22 24 27 29 30 29 28 29 29 29 31 33 35 39 41 42 45 47 47 47 47 47 48 49 49 51 53 57 60 60 58 57 57 57 58 59 61 61 62 62 62 61 60 58 54 54 54 52 50 49 49 49 47 46 46 48 48 48 49 50 50 49 48 48 48 46 47 48 48 49 50 50 50 52 53 54 54 54 54
28 25 23 23 23 22 19 16 15 19 23 26 29 30 30 30 31 30 30 33 36 38 41 42 42 44 48 49 48 48 48 49 51 52 55 57 58 58 57 55 55 55 56 58 60 61 62 61 61 60 58 57 55 52 52 53 51 48 48 48 48 46 45 46 47 47 47 48 50 51 51 51 51 51 50 49 49 50 52 52 51 51 52 54 54 54 54 54
26 23 21 20 20 19 18 16 14 16 20 24 27 29 30 31 32 33 32 34 38 40 43 44 43 42 44 46 46 46 46 47 48 51 52 54 55 56 54 53 54 56 57 59 59 59 59 58 58 57 55 54 53 52 53 53 48 45 45 45 46 46 45 47 48 47 47 48 50 51 52 53 54 53 52 51 50 51 54 55 54 53 53 54 55 55 55 55
Wind_Direction
268 267 265 263 261 260 259 258 257 257 256 256 256 256 255 253 251 249 247 246 245 244 243 242 241 241 240 239 239 238 238 238 238 237 237 237 237 236 237 237 237 237 238 237 237 237 237 237 237 237 238 238 239 240 240 240 241 242 244 244 245 245 245 246 247 249 249 247 247 247 247 249 253 253 252 252 252 253 254 253 256 259 259 260 258 260 262 263
268 267 265 264 262 260 258 257 256 255 255 254 254 255 254 254 252 250 247 245 244 244 243 242 241 241 240 239 239 238 238 238 237 237 237 237 237 236 236 237 236 237 237 238 237 237 236 236 237 237 238 238 238 239 240 241 241 243 244 244 244 244 244 245 246 247 248 247 247 248 250 251 251 252 251 252 255 255 255 254 256 260 260 261 262 262 263 263
268 267 265 264 262 260 258 256 255 254 253 253 252 252 252 252 251 250 248 245 244 243 242 242 241 240 240 240 239 238 238 238 237 236 236 237 237 236 236 236 236 236 237 238 237 237 237 237 237 237 238 238 239 240 241 241 242 243 244 244 244 244 243 244 245 246 247 248 250 250 248 249 249 250 251 252 256 256 256 255 256 261 262 263 266 265 265 265
268 267 266 264 263 261 259 257 255 254 253 252 251 251 250 250 250 250 249 247 244 242 241 241 241 240 239 239 239 238 238 237 237 236 236 237 236 236 236 236 236 236 237 237 237 238 238 238 237 237 238 238 239 239 240 241 241 243 244 244 243 243 243 244 244 245 247 248 251 250 243 245 248 252 253 251 254 256 256 257 258 262 265 266 268 268 267 267
268 267 266 264 263 261 259 258 256 255 253 252 251 250 250 249 249 249 249 248 246 244 242 240 240 240 239 238 238 238 237 237 236 236 236 237 237 236 236 236 236 236 236 237 237 237 238 238 238 238 238 238 239 239 240 240 240 242 243 243 242 243 243 243 244 245 247 250 252 252 243 241 248 253 254 251 253 256 258 261 262 265 269 269 268 269 270 270
267 266 265 264 263 261 260 258 256 255 254 252 251 250 250 249 249 248 248 247 247 246 244 241 240 239 239 238 237 237 237 237 235 235 236 237 236 236 235 236 236 236 236 237 237 237 238 238 238 238 238 238 239 239 239 240 239 240 241 242 242 243 242 243 246 247 249 250 249 248 243 241 247 251 252 253 254 256 260 264 265 267 270 269 269 272 272 272
266 265 263 263 262 261 259 258 256 255 254 252 251 250 249 249 248 248 247 247 246 246 245 243 241 239 238 238 237 236 236 236 235 234 235 236 236 235 235 235 235 235 235 236 236 237 237 237 238 238 238 238 238 238 239 239 239 240 241 241 241 242 242 244 247 247 246 247 246 247 246 244 247 249 251 253 254 258 262 265 266 266 268 270 271 273 272 274
265 263 262 261 260 259 259 257 256 254 253 252 251 250 249 249 248 247 247 246 246 245 245 244 242 240 239 238 237 236 236 236 234 233 234 236 236 235 236 236 236 235 235 235 236 236 236 237 237 237 237 238 238 238 238 239 239 239 241 241 241 242 243 244 246 247 245 246 247 248 248 244 245 248 251 253 256 258 260 264 268 267 270 273 273 272 273 275
263 262 260 259 258 258 257 257 256 254 253 252 251 250 249 248 248 247 247 246 245 245 244 244 243 241 240 238 237 236 236 236 234 232 233 235 235 235 235 235 236 236 235 235 235 236 236 237 237 237 237 237 237 237 238 238 238 239 240 241 241 242 243 244 245 246 244 245 247 248 248 245 245 248 250 252 255 256 257 264 270 271 272 271 270 272 274 275
263 261 259 258 257 256 255 255 254 254 253 251 250 249 248 248 247 247 246 246 245 244 244 243 243 241 240 239 237 235 235 236 234 231 232 235 235 235 234 235 236 236 236 236 235 236 236 236 236 236 237 237 237 237 238 238 238 238 239 241 241 242 244 244 245 245 245 246 247 247 247 247 246 248 250 252 254 256 256 259 261 265 267 267 268 270 268 269
263 261 259 257 256 255 254 253 253 252 252 251 250 249 248 247 246 246 245 245 245 244 243 243 243 242 240 240 238 236 235 235 235 232 231 234 234 234 234 233 235 235 236 236 236 235 235 235 235 236 236 236 237 237 237 237 237 238 239 241 242 242 244 244 244 245 245 245 246 246 247 247 247 248 250 251 253 253 252 249 246 250 257 264 266 265 265 266
265 262 259 257 256 255 254 253 252 251 250 250 249 248 247 246 246 245 244 244 244 243 243 242 242 242 240 239 239 238 236 234 234 232 230 231 231 232 232 232 233 234 235 235 235 235 235 235 235 235 235 236 237 237 237 236 237 238 238 240 241 241 242 243 243 244 244 245 245 246 246 247 247 248 249 250 250 249 249 245 238 241 246 250 257 262 263 264
269 265 261 258 256 255 254 253 252 251 250 249 248 247 247 246 245 244 244 243 243 242 242 242 242 242 240 239 238 238 237 234 232 231 230 231 231 230 231 231 231 232 233 234 234 235 235 235 235 235 235 235 236 236 237 236 236 238 237 238 240 240 241 243 243 243 244 244 245 246 246 247 247 247 247 247 247 246 246 242 233 235 242 245 253 261 259 260
273 269 265 262 259 257 255 254 253 252 251 249 248 247 246 246 245 244 243 243 242 242 241 241 241 241 240 238 238 238 237 234 232 232 231 231 231 230 230 230 230 231 232 233 234 234 235 235 235 235 235 235 236 236 237 236 237 238 237 237 240 240 241 242 242 242 243 243 244 245 245 246 246 247 246 246 246 244 242 240 232 232 242 246 249 255 256 256
275 272 269 266 263 260 258 256 255 254 252 251 250 248 247 246 245 244 243 242 242 241 241 240 241 241 239 237 237 237 237 235 232 232 231 230 230 230 230 229 229 229 230 231 232 233 234 235 235 235 235 235 235 235 236 236 237 238 237 238 240 240 239 241 241 241 241 242 243 244 245 246 246 246 246 245 246 243 240 237 231 229 235 239 237 238 244 247
275 272 270 267 265 263 260 258 257 255 254 252 251 250 249 247 246 245 244 242 242 241 240 240 240 240 238 237 237 236 236 235 232 231 231 229 229 229 229 229 228 228 229 230 231 232 233 234 235 235 235 235 235 235 235 235 236 238 239 238 240 240 238 239 239 238 239 240 241 243 245 245 243 244 245 244 243 240 237 234 231 228 229 233 235 233 237 244
277 274 271 268 266 264 263 261 259 257 256 254 252 251 249 248 247 246 245 243 242 241 240 239 239 239 238 237 237 236 235 234 232 230 230 229 229 228 228 228 228 227 228 229 230 231 232 233 234 235 235 235 235 235 235 235 236 238 239 238 239 238 238 239 238 237 239 240 240 242 243 242 241 242 242 241 241 238 235 232 230 229 227 227 233 236 239 245
280 277 274 271 269 267 265 264 262 261 259 257 255 253 251 250 248 247 245 244 243 242 241 240 239 238 236 236 236 235 234 233 232 230 229 229 229 228 228 228 228 228 227 228 229 230 231 232 233 234 234 235 235 237 237 237 238 237 237 237 237 236 236 238 237 236 239 240 239 240 241 240 238 239 238 237 237 236 233 232 230 229 225 219 222 229 233 241
283 280 277 275 273 271 270 268 266 264 262 260 258 256 254 252 250 248 246 245 244 243 242 240 239 237 235 235 235 235 233 232 231 231 230 229 229 228 228 227 227 227 227 227 228 229 230 231 232 233 235 236 238 239 238 237 236 234 233 234 234 234 233 236 236 232 236 239 237 238 239 237 234 235 235 233 234 235 233 231 229 228 225 217 213 215 223 233
288 284 281 279 277 275 273 271 269 266 264 262 259 257 255 252 251 249 247 246 244 243 241 240 239 237 237 235 235 234 233 230 229 230 229 227 227 227 226 226 225 226 226 227 227 227 229 230 232 233 236 237 237 237 235 235 235 233 232 232 233 233 232 235 235 229 233 237 235 236 238 233 232 233 233 231 229 231 231 228 227 227 225 219 213 214 225 230
293 289 286 283 281 278 276 273 270 268 265 263 261 258 255 252 250 248 247 246 244 243 241 239 238 236 237 236 235 235 233 230 228 228 228 227 226 226 226 225 225 225 226 226 226 226 227 229 230 231 232 233 234 234 233 234 235 234 232 231 232 232 232 235 235 229 231 236 235 235 235 231 230 230 229 228 225 230 234 230 226 226 226 222 220 222 229 231
296 293 290 287 284 281 278 274 270 267 264 262 260 258 255 252 249 247 245 244 242 241 240 238 236 234 235 235 234 234 233 230 228 228 229 228 227 226 226 226 225 225 225 226 226 226 227 228 228 229 230 231 231 231 232 233 234 234 232 230 230 231 231 233 234 229 229 236 236 233 232 230 228 224 224 226 226 230 236 234 228 227 228 225 224 224 226 233
300 296 294 291 288 284 280 277 273 267 263 261 258 256 254 251 249 246 244 241 239 237 237 235 233 232 232 233 232 232 232 229 226 226 228 228 227 226 226 226 225 225 225 226 226 227 227 227 227 229 229 229 230 230 231 232 233 233 232 231 231 232 231 232 234 230 226 234 235 229 228 229 225 220 220 223 226 227 230 233 231 229 228 227 225 221 223 235
304 301 298 296 292 287 283 280 275 270 266 262 258 254 252 250 247 244 242 240 237 234 234 232 230 228 229 230 228 228 229 228 225 225 225 226 226 226 226 226 225 225 225 226 226 225 223 223 225 227 228 228 228 229 231 233 234 234 233 231 230 232 232 232 234 229 224 231 233 226 224 227 223 218 217 219 222 223 224 228 231 229 228 228 223 216 222 239
311 306 304 302 298 292 288 284 278 273 268 264 259 255 251 248 246 243 240 238 235 232 230 229 226 224 225 226 224 224 225 225 225 224 224 224 224 224 224 225 225 224 224 225 224 223 221 221 222 224 225 226 227 229 230 232 234 233 233 231 230 232 232 231 232 227 223 230 232 224 222 224 223 219 216 215 216 219 222 224 227 228 227 229 223 215 222 241
316 313 309 307 302 297 293 287 282 275 269 264 259 254 249 246 242 239 236 233 231 229 227 225 223 222 223 223 220 220 222 222 223 223 223 223 223 223 222 223 223 223 223 224 223 222 221 220 221 222 223 225 226 227 228 231 232 232 232 233 230 232 232 230 230 226 224 230 230 222 221 222 221 218 216 215 215 217 220 223 224 226 228 229 225 221 226 239
322 319 315 310 305 299 295 290 284 277 270 263 257 251 246 243 238 233 229 225 224 224 222 221 220 219 219 219 216 216 218 220 221 222 221 222 222 223 222 222 222 221 221 222 222 221 220 220 220 221 222 223 223 225 227 231 232 231 232 232 229 230 231 229 228 225 224 228 227 221 220 221 220 219 217 216 217 216 217 219 221 224 227 225 221 222 229 238
328 325 319 315 309 302 299 296 290 281 272 262 255 249 244 240 235 229 225 219 218 217 214 215 216 215 216 215 212 211 213 216 217 218 219 220 221 222 222 221 221 221 220 221 222 221 221 220 220 221 222 223 223 223 226 230 231 229 231 231 228 230 231 229 227 226 226 228 226 222 221 221 220 220 218 215 215 216 218 218 218 221 222 220 216 218 227 238
333 329 325 321 315 309 308 305 296 284 274 262 252 246 241 237 231 225 220 215 214 211 208 210 212 212 213 212 209 208 211 213 213 214 215 217 218 220 221 220 220 220 219 219 220 220 220 219 219 219 220 221 222 222 225 228 227 227 229 229 229 231 231 229 226 225 227 228 225 224 223 221 221 221 218 215 213 215 217 216 216 218 217 218 217 214 216 230
338 334 331 328 323 319 316 308 296 284 274 263 252 244 238 232 227 222 217 214 212 209 206 208 210 210 210 207 206 207 209 211 211 212 212 213 215 216 218 218 218 218 218 217 218 219 218 217 217 217 218 219 220 220 223 225 224 226 228 229 231 232 230 229 227 225 227 227 224 223 224 222 222 222 220 218 216 217 218 216 216 218 219 220 216 210 211 224
343 340 337 334 331 327 321 309 295 285 274 262 252 243 235 228 224 221 217 214 213 209 206 207 208 208 207 204 204 206 207 208 209 211 211 211 211 212 214 216 216 216 216 215 216 217 217 216 216 216 216 217 217 219 222 223 223 226 227 228 230 230 229 229 228 227 228 228 225 223 224 223 223 223 221 221 220 219 220 220 220 222 223 222 215 211 216 227
346 346 342 339 336 331 325 310 294 284 273 259 248 241 232 224 222 221 219 216 213 210 209 208 208 207 204 202 202 203 204 206 206 208 210 211 211 211 212 213 214 215 215 214 215 217 217 216 215 214 215 216 216 219 221 220 222 226 227 228 231 232 230 229 229 228 228 227 226 225 224 223 222 223 223 224 223 221 222 223 224 226 225 222 220 219 223 228
350 350 346 343 341 336 329 315 296 279 265 252 240 236 230 221 218 218 217 216 213 211 211 210 209 207 203 201 201 202 203 203 203 206 208 208 209 210 210 211 213 214 215 215 216 218 218 216 215 214 215 217 218 220 221 222 226 229 230 231 235 237 234 232 232 232 231 229 228 227 226 224 223 223 223 225 226 224 225 226 226 228 227 223 223 223 224 228
354 354 351 348 346 341 334 322 304 281 253 235 221 220 222 219 216 214 213 212 210 210 211 212 211 206 202 200 200 201 202 200 200 204 206 205 206 207 208 209 209 210 211 211 214 217 218 218 216 216 217 218 219 220 221 223 227 230 231 231 234 235 232 231 233 233 232 231 230 230 228 226 224 224 223 226 227 225 224 225 225 228 231 228 226 227 228 231
357 356 355 353 350 344 338 329 314 292 246 203 193 193 199 205 208 209 208 206 206 207 207 210 211 205 201 200 199 199 199 198 199 200 202 204 205 205 206 207 207 207 207 206 209 214 216 217 216 216 216 216 217 218 218 221 225 227 228 228 230 233 230 228 229 229 228 228 228 229 229 227 225 225 224 225 228 228 226 226 226 227 230 230 228 230 232 234
359 359 359 357 353 347 341 335 323 302 256 190 178 179 182 186 190 193 195 197 200 202 202 204 205 202 200 199 199 198 196 196 198 198 198 200 202 203 204 205 206 207 206 205 207 211 213 214 213 213 213 213 214 216 217 221 225 227 228 227 229 232 230 227 227 228 228 228 227 227 228 228 226 226 225 225 227 230 229 226 225 226 229 232 232 233 235 237
1 2 1 358 355 350 344 340 332 316 286 208 179 176 175 176 179 183 186 187 190 195 197 198 198 197 196 197 199 198 195 194 196 196 196 197 199 200 201 202 204 206 205 205 207 209 210 210 210 211 213 212 214 216 216 220 225 226 227 227 228 229 229 227 227 229 230 229 228 228 228 228 228 227 226 225 227 230 230 227 228 229 232 235 237 236 237 240
2 3 2 0 358 353 348 345 341 329 309 252 191 179 175 174 177 180 181 181 181 186 191 193 193 192 192 194 197 197 194 193 192 191 193 195 196 197 198 199 201 203 203 205 207 208 207 207 207 209 211 210 213 215 215 219 225 224 223 225 228 230 231 230 229 231 232 232 231 232 231 230 230 230 228 226 226 229 229 229 231 232 233 236 237 237 237 240
5 4 2 0 360 356 352 353 351 344 336 310 180 169 171 174 176 176 177 177 176 178 182 186 189 189 189 192 194 195 194 192 190 188 189 192 194 196 197 197 198 200 201 204 206 206 207 206 205 207 209 210 213 214 214 219 224 223 222 226 229 231 233 232 230 231 233 233 232 234 233 231 231 232 231 229 227 226 225 227 230 233 235 237 238 238 239 241
7 5 2 1 2 360 358 1 2 1 18 67 119 136 149 162 171 173 173 173 171 172 176 178 182 187 188 188 189 191 192 189 188 188 187 189 192 194 194 194 196 199 201 203 204 205 207 206 204 207 209 210 212 212 213 218 223 223 224 228 231 232 233 232 230 230 231 231 231 233 232 230 231 231 231 233 231 227 226 228 231 233 235 237 238 239 241 242
8 6 3 3 4 3 4 9 12 22 56 92 114 126 133 142 157 165 167 169 169 169 171 172 176 184 188 186 184 186 188 187 186 186 186 187 189 190 191 192 194 198 200 202 203 205 207 205 204 207 208 208 210 211 213 217 221 220 221 227 230 231 232 232 230 230 231 231 231 233 231 229 231 231 229 232 231 227 226 229 230 232 235 237 239 241 242 243
10 8 6 6 7 7 10 17 25 42 75 99 112 119 124 130 141 152 159 165 167 167 170 172 174 180 185 184 180 181 184 184 184 185 185 187 187 188 190 191 194 197 199 200 201 204 207 205 206 208 207 207 208 210 214 217 219 219 220 225 228 229 231 232 231 231 232 232 232 232 230 228 230 231 229 230 232 228 226 228 231 234 237 239 239 241 241 240
13 11 9 8 9 9 14 26 37 55 84 99 108 114 119 125 136 145 152 161 165 165 168 173 174 176 180 181 178 178 179 181 182 184 184 185 185 187 189 191 194 197 198 199 201 203 204 205 207 208 207 207 208 209 212 216 218 220 223 226 228 229 230 230 229 229 228 229 230 229 229 229 229 231 231 230 233 232 228 228 232 235 237 238 238 239 239 240
16 15 12 9 10 12 19 35 49 67 88 99 106 112 116 123 135 142 147 156 161 163 167 172 175 174 175 177 176 176 177 178 181 183 183 184 185 186 189 191 194 197 198 199 201 203 203 203 206 207 207 209 211 212 214 216 218 221 224 227 229 231 231 228 225 225 224 225 228 227 226 228 228 229 231 231 232 234 231 229 231 235 236 236 236 236 238 241
18 19 15 12 13 17 26 43 60 77 91 99 105 111 115 120 133 141 145 152 157 161 166 171 175 171 171 175 175 174 176 178 181 182 182 184 185 187 189 191 193 195 197 199 200 202 203 202 204 206 208 212 215 218 221 220 221 223 225 227 230 232 233 230 228 228 226 227 230 229 227 226 225 226 228 230 231 232 231 228 229 232 235 235 235 236 238 242
20 22 19 16 16 22 35 50 67 83 93 99 103 109 114 119 129 138 146 152 154 159 164 168 173 170 168 173 175 174 177 180 181 181 182 183 185 186 188 191 194 194 196 198 200 201 202 201 202 204 207 210 213 216 219 220 221 226 227 228 231 233 232 231 231 232 231 229 231 233 232 228 227 228 228 229 230 231 231 230 229 232 236 237 239 240 241 241
20 25 23 20 20 27 42 56 73 86 94 99 103 109 113 118 125 133 143 150 152 157 160 163 169 169 168 173 176 176 179 181 179 179 182 184 184 184 187 191 194 195 195 197 199 201 202 201 202 205 206 208 210 210 213 217 221 225 227 227 231 233 233 231 231 231 231 229 229 232 233 228 227 230 230 231 231 231 232 231 229 231 236 240 242 243 243 241
17 26 27 24 23 31 46 60 75 87 95 100 103 107 112 117 124 131 140 146 148 152 155 159 167 169 168 172 176 177 178 176 175 177 181 183 182 183 188 191 192 193 195 196 198 200 201 201 204 206 206 207 209 210 212 216 220 223 225 227 231 234 232 230 229 230 230 229 228 231 232 228 224 226 228 228 229 229 231 232 230 232 236 240 242 243 243 243
12 24 30 28 26 32 45 61 77 88 96 101 103 105 110 116 122 128 137 143 145 149 152 156 162 164 164 169 173 173 171 170 172 176 178 179 180 184 190 191 190 192 194 195 197 199 201 202 204 206 207 209 211 210 211 215 219 221 223 226 230 231 229 227 227 228 228 228 227 229 232 229 224 224 226 227 227 228 232 234 234 235 236 238 241 242 243 244
6 19 30 31 29 32 40 55 77 90 96 101 103 105 108 114 119 125 134 139 141 145 148 151 156 158 160 166 169 169 169 170 172 175 176 178 182 186 189 189 189 192 193 195 197 199 201 203 205 207 208 210 213 213 214 218 220 220 221 224 228 229 228 228 228 229 230 229 227 228 229 230 227 224 225 229 230 230 233 236 237 239 241 242 244 246 246 246
0 10 26 34 33 34 39 47 68 89 98 101 104 106 109 113 117 122 129 134 137 142 145 147 154 159 162 165 168 169 171 172 173 175 178 179 183 187 189 188 189 192 194 196 198 201 202 203 206 209 209 211 214 215 218 222 224 224 226 228 230 231 229 228 229 230 231 231 230 229 230 231 231 227 226 229 233 235 237 238 239 241 244 246 247 249 250 250
356 2 18 32 35 36 41 46 57 80 96 102 106 108 111 115 119 122 128 134 138 143 146 149 157 164 165 167 169 170 171 173 175 178 180 180 183 186 187 188 189 192 194 197 200 203 204 205 208 210 211 213 214 214 218 222 225 226 229 231 232 232 230 230 230 229 230 232 231 231 231 233 234 233 230 231 235 239 241 242 242 243 245 248 250 251 254 255
Height
10614 10613 10612 10612 10612 10612 10611 10611 10611 10611 10612 10613 10614 10615 10617 10618 10620 10623 10625 10627 10629 10631 10634 10636 10638 10640 10642 10644 10648 10651 10654 10657 10662 10668 10674 10674 10675 10685 10689 10690 10696 10698 10700 10704 10710 10713 10716 10719 10722 10725 10727 10732 10736 10739 10742 10746 10748 10750 10755 10761 10768 10775 10778 10777 10776 10777 10778 10778 10780 10792 10804 10810 10809 10798 10798 10803 10803 10803 10806 10813 10813 10820 10829 10827 10829 10831 10833 10833
10604 10603 10602 10601 10601 10601 10601 10601 10601 10601 10602 10603 10603 10604 10606 10608 10610 10612 10615 10617 10619 10622 10624 10627 10629 10630 10633 10636 10640 10643 10645 10649 10655 10661 10665 10665 10669 10678 10679 10681 10687 10692 10694 10696 10702 10704 10708 10712 10715 10718 10722 10727 10730 10733 10736 10740 10743 10746 10750 10755 10764 10770 10771 10771 10771 10770 10768 10769 10778 10793 10805 10809 10802 10787 10793 10802 10798 10800 10804 10808 10814 10820 10825 10823 10826 10831 10831 10830
10594 10592 10591 10590 10590 10589 10590 10590 10590 10591 10591 10592 10593 10594 10595 10597 10599 10601 10604 10606 10609 10612 10614 10617 10619 10621 10624 10627 10632 10634 10638 10642 10647 10653 10657 10657 10662 10669 10671 10675 10679 10684 10687 10689 10694 10697 10701 10705 10708 10713 10717 10721 10725 10728 10729 10734 10740 10742 10745 10751 10759 10762 10762 10765 10764 10761 10759 10768 10781 10793 10804 10803 10789 10779 10791 10801 10793 10797 10800 10803 10816 10819 10819 10823 10824 10828 10830 10828
10583 10581 10580 10579 10578 10578 10578 10578 10579 10579 10580 10581 10582 10583 10585 10586 10588 10590 10593 10595 10598 10602 10604 10607 10609 10612 10614 10618 10623 10626 10630 10633 10638 10646 10649 10649 10654 10661 10666 10669 10672 10677 10679 10681 10686 10691 10695 10698 10702 10707 10711 10716 10719 10721 10723 10730 10736 10736 10739 10747 10752 10751 10755 10760 10754 10752 10757 10772 10781 10785 10801 10795 10777 10779 10790 10796 10790 10792 10796 10800 10816 10819 10816 10822 10822 10824 10827 10825
10572 10571 10569 10568 10567 10566 10566 10566 10566 10567 10568 10569 10570 10572 10574 10575 10578 10580 10582 10584 10587 10591 10593 10597 10599 10601 10605 10609 10613 10617 10621 10623 10631 10641 10641 10642 10649 10655 10659 10661 10664 10670 10671 10674 10680 10684 10687 10691 10695 10700 10705 10710 10712 10715 10719 10724 10728 10729 10733 10740 10742 10743 10750 10750 10741 10748 10762 10776 10779 10778 10792 10786 10776 10782 10783 10788 10788 10789 10795 10800 10815 10820 10815 10818 10818 10820 10822 10822
10560 10559 10557 10556 10554 10554 10554 10553 10553 10554 10555 10556 10558 10560 10561 10564 10566 10568 10571 10573 10577 10579 10583 10586 10588 10591 10595 10599 10604 10608 10611 10616 10627 10634 10632 10635 10641 10646 10651 10652 10657 10661 10663 10668 10674 10677 10680 10683 10688 10694 10699 10702 10704 10709 10712 10715 10720 10723 10727 10732 10734 10737 10743 10740 10737 10753 10768 10774 10771 10768 10779 10782 10780 10779 10775 10783 10786 10787 10796 10801 10813 10820 10811 10812 10815 10816 10818 10818
10548 10546 10544 10543 10541 10541 10541 10541 10541 10541 10541 10543 10545 10546 10548 10551 10553 10556 10559 10562 10565 10568 10572 10575 10577 10581 10584 10589 10594 10599 10603 10610 10620 10623 10623 10627 10632 10638 10642 10644 10648 10652 10656 10661 10666 10670 10672 10676 10682 10688 10690 10693 10697 10702 10704 10706 10713 10718 10721 10724 10728 10731 10736 10736 10737 10754 10767 10765 10760 10760 10772 10781 10778 10772 10772 10779 10783 10790 10798 10799 10810 10816 10807 10807 10813 10814 10814 10814
10534 10533 10531 10530 10528 10527 10527 10527 10527 10527 10528 10529 10531 10533 10535 10537 10540 10543 10546 10549 10553 10556 10560 10563 10565 10570 10574 10578 10584 10591 10598 10601 10607 10614 10618 10620 10624 10630 10634 10636 10641 10645 10650 10655 10659 10662 10665 10670 10676 10679 10682 10687 10689 10692 10696 10699 10706 10713 10714 10716 10721 10726 10729 10733 10737 10751 10761 10755 10752 10759 10768 10773 10770 10767 10771 10777 10783 10791 10796 10797 10806 10809 10804 10804 10809 10810 10810 10811
10519 10518 10517 10515 10515 10513 10513 10512 10512 10513 10514 10516 10517 10519 10521 10524 10526 10529 10533 10536 10540 10544 10549 10551 10554 10559 10563 10568 10574 10583 10589 10589 10595 10609 10613 10612 10616 10621 10625 10629 10634 10639 10644 10648 10652 10655 10659 10665 10669 10671 10675 10679 10680 10683 10688 10693 10701 10708 10708 10708 10716 10721 10721 10730 10738 10745 10751 10747 10748 10757 10759 10762 10765 10766 10769 10775 10781 10788 10794 10798 10802 10803 10800 10800 10804 10806 10807 10809
10504 10502 10501 10500 10499 10499 10498 10498 10498 10498 10499 10501 10503 10504 10507 10509 10512 10515 10519 10522 10527 10532 10536 10540 10541 10547 10553 10557 10565 10575 10580 10578 10586 10603 10608 10605 10607 10612 10617 10623 10628 10634 10637 10641 10645 10649 10654 10658 10660 10662 10666 10670 10673 10678 10683 10689 10697 10700 10700 10702 10711 10716 10718 10729 10735 10737 10743 10742 10745 10752 10751 10754 10761 10763 10767 10774 10780 10786 10793 10798 10799 10797 10795 10795 10798 10801 10802 10806
10488 10486 10485 10484 10483 10483 10482 10482 10483 10483 10484 10485 10487 10489 10491 10494 10497 10501 10505 10509 10514 10518 10523 10527 10529 10535 10543 10547 10558 10568 10567 10568 10580 10598 10602 10596 10597 10602 10609 10617 10622 10627 10630 10634 10638 10642 10646 10648 10650 10653 10658 10664 10667 10673 10677 10685 10692 10692 10694 10700 10706 10711 10715 10724 10729 10731 10736 10737 10740 10743 10743 10747 10755 10760 10767 10773 10777 10781 10787 10791 10790 10787 10790 10793 10793 10794 10796 10801
10472 10469 10467 10466 10465 10465 10465 10466 10466 10467 10468 10469 10470 10473 10475 10478 10482 10486 10491 10495 10500 10505 10510 10514 10516 10522 10531 10540 10552 10555 10552 10560 10573 10585 10585 10580 10584 10593 10600 10609 10614 10618 10622 10625 10630 10634 10637 10639 10642 10646 10653 10657 10660 10666 10672 10680 10685 10684 10691 10697 10699 10706 10712 10718 10723 10726 10729 10732 10734 10735 10737 10743 10750 10758 10765 10768 10769 10776 10781 10783 10783 10780 10783 10786 10786 10791 10793 10794
10455 10453 10451 10449 10448 10447 10447 10448 10448 10450 10451 10452 10454 10456 10458 10462 10466 10471 10476 10480 10485 10491 10496 10500 10504 10509 10520 10535 10543 10539 10540 10552 10561 10566 10569 10571 10578 10586 10592 10600 10605 10609 10613 10617 10622 10626 10628 10631 10635 10640 10646 10649 10654 10661 10667 10675 10679 10680 10688 10692 10693 10702 10710 10714 10718 10719 10723 10727 10727 10729 10733 10737 10746 10755 10759 10760 10763 10772 10776 10777 10780 10778 10778 10781 10785 10789 10790 10791
10439 10436 10434 10432 10431 10430 10429 10429 10430 10432 10433 10435 10437 10439 10442 10445 10450 10456 10459 10465 10470 10476 10481 10486 10491 10497 10512 10529 10529 10525 10529 10539 10550 10555 10560 10566 10572 10578 10585 10592 10597 10602 10606 10610 10614 10618 10621 10624 10628 10633 10638 10643 10650 10656 10661 10669 10672 10675 10683 10687 10691 10700 10707 10709 10711 10714 10719 10720 10721 10724 10726 10731 10744 10750 10751 10755 10760 10768 10771 10773 10776 10775 10776 10780 10785 10788 10789 10792
10424 10420 10418 10415 10414 10413 10412 10412 10412 10414 10415 10417 10420 10422 10425 10429 10434 10439 10443 10449 10454 10460 10467 10471 10479 10486 10503 10517 10513 10511 10518 10528 10542 10545 10547 10557 10563 10570 10576 10582 10589 10594 10598 10602 10605 10610 10614 10616 10621 10628 10634 10638 10644 10650 10657 10664 10668 10672 10680 10687 10690 10697 10703 10703 10704 10710 10713 10712 10715 10718 10720 10730 10742 10742 10745 10752 10756 10763 10766 10768 10770 10770 10771 10771 10776 10783 10786 10787
10410 10406 10402 10399 10397 10395 10395 10395 10395 10396 10398 10399 10402 10405 10409 10413 10417 10422 10427 10433 10437 10444 10451 10458 10467 10474 10492 10504 10498 10501 10510 10519 10529 10530 10535 10548 10554 10560 10566 10572 10580 10585 10591 10594 10597 10602 10606 10610 10616 10623 10626 10632 10640 10646 10651 10658 10664 10670 10679 10686 10687 10691 10697 10695 10699 10705 10705 10706 10711 10714 10717 10728 10735 10735 10741 10747 10750 10756 10758 10760 10763 10764 10763 10764 10771 10778 10780 10780
10396 10392 10388 10384 10381 10379 10378 10378 10378 10379 10381 10382 10384 10388 10391 10395 10400 10406 10411 10415 10421 10427 10435 10445 10453 10464 10483 10490 10483 10490 10499 10504 10513 10518 10527 10538 10545 10551 10557 10564 10571 10577 10583 10586 10590 10595 10599 10605 10612 10616 10620 10629 10636 10639 10646 10657 10665 10670 10676 10680 10680 10685 10690 10689 10694 10700 10700 10703 10709 10711 10714 10722 10729 10732 10736 10740 10743 10747 10750 10753 10755 10757 10761 10767 10773 10776 10778 10777
10383 10378 10373 10370 10367 10365 10364 10363 10364 10364 10366 10367 10368 10372 10375 10379 10383 10389 10394 10398 10405 10411 10421 10433 10442 10456 10471 10469 10467 10477 10483 10491 10502 10509 10519 10529 10535 10543 10550 10556 10562 10569 10575 10578 10584 10590 10595 10600 10604 10609 10617 10627 10633 10638 10650 10661 10663 10665 10668 10671 10673 10678 10683 10682 10688 10697 10698 10699 10705 10706 10709 10718 10726 10728 10730 10733 10736 10740 10743 10747 10750 10753 10759 10766 10770 10773 10775 10772
10370 10365 10361 10357 10354 10352 10350 10350 10350 10350 10351 10352 10354 10357 10360 10365 10369 10373 10377 10381 10389 10399 10409 10419 10429 10441 10449 10450 10455 10461 10469 10484 10496 10503 10512 10520 10526 10534 10541 10547 10553 10560 10566 10572 10579 10585 10589 10591 10596 10607 10619 10629 10635 10641 10651 10654 10651 10653 10657 10661 10665 10670 10675 10675 10682 10694 10693 10692 10700 10701 10705 10718 10723 10722 10724 10727 10731 10734 10738 10741 10744 10748 10753 10758 10763 10766 10766 10763
10358 10353 10349 10345 10342 10340 10338 10337 10337 10337 10337 10338 10340 10343 10346 10351 10354 10358 10361 10367 10377 10386 10394 10403 10415 10426 10431 10437 10444 10448 10460 10476 10486 10491 10497 10505 10511 10518 10526 10535 10542 10549 10557 10566 10573 10577 10579 10584 10597 10614 10624 10628 10631 10635 10640 10640 10639 10643 10649 10655 10659 10664 10670 10670 10677 10690 10688 10686 10694 10697 10704 10716 10718 10717 10720 10724 10728 10729 10731 10736 10739 10742 10745 10750 10756 10757 10754 10753
10346 10341 10337 10333 10330 10328 10327 10325 10324 10324 10324 10325 10327 10329 10333 10337 10340 10343 10348 10356 10365 10371 10380 10390 10402 10412 10417 10425 10433 10439 10450 10464 10474 10479 10484 10492 10498 10505 10517 10527 10534 10543 10552 10559 10563 10565 10571 10585 10605 10616 10617 10617 10620 10625 10630 10631 10632 10637 10644 10650 10654 10659 10665 10667 10673 10684 10684 10682 10689 10696 10705 10711 10712 10715 10718 10720 10723 10724 10726 10730 10734 10736 10738 10743 10747 10748 10748 10750
10336 10331 10327 10323 10320 10317 10316 10314 10313 10313 10313 10314 10315 10317 10320 10324 10327 10332 10336 10343 10351 10357 10366 10374 10386 10398 10403 10410 10421 10429 10440 10457 10469 10473 10476 10483 10490 10501 10512 10520 10529 10539 10545 10547 10552 10560 10574 10594 10607 10606 10604 10607 10612 10618 10622 10624 10626 10632 10638 10643 10649 10655 10660 10663 10667 10676 10681 10679 10684 10695 10703 10705 10709 10714 10715 10715 10718 10719 10721 10724 10728 10730 10732 10737 10740 10743 10747 10748
10327 10322 10317 10313 10310 10307 10305 10304 10303 10303 10303 10304 10305 10307 10309 10312 10316 10320 10325 10331 10338 10345 10353 10361 10372 10383 10390 10397 10408 10419 10430 10447 10458 10459 10463 10474 10484 10495 10504 10513 10524 10530 10533 10541 10551 10565 10583 10597 10597 10592 10594 10601 10607 10612 10615 10618 10620 10627 10633 10640 10648 10651 10655 10660 10661 10671 10680 10675 10678 10693 10699 10701 10708 10711 10711 10713 10714 10715 10717 10718 10722 10725 10727 10731 10735 10740 10744 10743
10320 10314 10309 10305 10301 10298 10296 10295 10294 10294 10294 10295 10296 10298 10300 10303 10306 10310 10314 10320 10328 10336 10342 10349 10357 10368 10376 10381 10393 10407 10419 10433 10442 10443 10451 10465 10476 10486 10496 10505 10514 10520 10529 10540 10551 10564 10578 10583 10580 10581 10588 10595 10600 10605 10610 10613 10617 10624 10630 10638 10645 10646 10652 10657 10655 10666 10675 10668 10673 10691 10697 10699 10703 10706 10708 10710 10711 10712 10714 10714 10717 10720 10723 10726 10732 10738 10740 10738
10313 10306 10301 10297 10293 10290 10288 10287 10286 10286 10285 10286 10288 10290 10292 10294 10297 10301 10306 10312 10320 10326 10331 10337 10346 10358 10363 10366 10382 10399 10408 10419 10427 10432 10444 10456 10466 10476 10486 10495 10503 10513 10526 10536 10546 10556 10564 10566 10568 10574 10581 10588 10595 10602 10607 10609 10612 10621 10628 10635 10642 10643 10647 10647 10646 10659 10669 10663 10672 10690 10693 10693 10697 10700 10703 10706 10707 10709 10711 10713 10715 10719 10721 10724 10730 10735 10737 10736
10306 10300 10295 10291 10287 10284 10282 10280 10280 10279 10278 10279 10281 10282 10284 10285 10288 10293 10298 10305 10311 10315 10321 10331 10341 10349 10352 10359 10375 10387 10394 10406 10415 10424 10436 10447 10456 10466 10475 10483 10494 10508 10521 10529 10537 10545 10552 10557 10562 10569 10576 10584 10591 10597 10602 10603 10607 10619 10627 10634 10639 10637 10635 10636 10642 10658 10665 10661 10671 10684 10686 10687 10690 10694 10698 10700 10703 10706 10709 10712 10714 10717 10720 10724 10729 10734 10737 10734
10299 10294 10289 10286 10282 10279 10277 10276 10274 10273 10273 10273 10273 10274 10276 10277 10281 10286 10290 10297 10302 10306 10316 10326 10332 10337 10341 10348 10361 10372 10386 10400 10407 10416 10429 10440 10448 10457 10466 10476 10489 10502 10511 10517 10525 10536 10546 10553 10559 10565 10572 10579 10585 10592 10597 10599 10606 10619 10625 10628 10630 10624 10623 10631 10643 10655 10658 10655 10664 10676 10679 10682 10686 10689 10693 10696 10700 10704 10707 10709 10711 10713 10716 10722 10729 10735 10737 10733
10294 10290 10285 10281 10278 10275 10273 10272 10270 10269 10268 10268 10268 10268 10270 10272 10276 10280 10284 10290 10293 10298 10308 10314 10318 10323 10327 10337 10354 10370 10380 10384 10391 10406 10422 10431 10439 10449 10461 10473 10486 10496 10503 10512 10525 10536 10544 10550 10557 10562 10569 10576 10582 10590 10594 10595 10605 10617 10619 10618 10617 10614 10620 10633 10642 10649 10650 10650 10659 10670 10674 10678 10683 10685 10688 10693 10698 10701 10703 10704 10706 10709 10713 10720 10727 10731 10733 10730
10291 10286 10281 10277 10274 10272 10270 10268 10267 10265 10264 10264 10264 10264 10265 10268 10271 10274 10278 10282 10284 10290 10298 10301 10306 10312 10320 10336 10355 10362 10362 10366 10379 10395 10407 10417 10429 10442 10455 10468 10479 10486 10495 10509 10522 10529 10536 10544 10550 10556 10564 10571 10578 10587 10587 10590 10603 10610 10608 10607 10608 10612 10622 10630 10636 10642 10642 10644 10656 10666 10670 10675 10679 10680 10686 10692 10694 10695 10697 10700 10703 10707 10711 10717 10722 10724 10727 10726
10288 10283 10278 10274 10271 10268 10266 10265 10264 10263 10261 10261 10261 10261 10262 10264 10267 10269 10272 10275 10278 10284 10289 10293 10300 10307 10318 10335 10345 10347 10353 10365 10377 10385 10393 10404 10417 10431 10445 10457 10467 10476 10489 10503 10512 10519 10527 10535 10541 10549 10559 10566 10574 10579 10577 10586 10600 10600 10598 10602 10605 10611 10618 10623 10630 10635 10634 10639 10653 10661 10665 10671 10674 10676 10684 10687 10688 10690 10694 10697 10701 10704 10707 10711 10715 10717 10719 10718
10285 10281 10276 10272 10268 10266 10264 10263 10262 10260 10259 10259 10258 10259 10260 10261 10264 10265 10268 10271 10275 10280 10284 10289 10295 10303 10315 10327 10333 10340 10351 10360 10369 10380 10389 10396 10405 10420 10435 10446 10457 10469 10480 10491 10501 10509 10518 10527 10537 10547 10554 10558 10564 10567 10572 10587 10593 10588 10591 10598 10601 10606 10614 10620 10626 10628 10630 10640 10652 10657 10660 10666 10669 10674 10680 10681 10683 10688 10691 10694 10697 10699 10703 10706 10708 10710 10711 10708
10283 10279 10275 10271 10267 10264 10262 10261 10259 10258 10258 10257 10257 10257 10258 10260 10262 10264 10268 10271 10275 10279 10282 10287 10293 10300 10310 10318 10326 10335 10343 10350 10363 10375 10383 10393 10407 10419 10429 10441 10453 10465 10476 10487 10499 10508 10518 10528 10537 10543 10545 10549 10557 10563 10572 10583 10581 10579 10589 10596 10599 10606 10614 10618 10621 10623 10630 10642 10649 10650 10653 10659 10664 10670 10674 10675 10680 10684 10686 10690 10694 10696 10699 10701 10702 10703 10702 10700
10281 10277 10273 10270 10266 10263 10261 10259 10258 10256 10256 10256 10256 10256 10257 10258 10260 10263 10267 10271 10275 10279 10282 10286 10291 10298 10307 10315 10323 10329 10335 10347 10362 10371 10379 10393 10408 10419 10430 10442 10456 10469 10481 10495 10505 10511 10518 10523 10526 10531 10537 10547 10558 10564 10574 10580 10578 10582 10592 10598 10602 10608 10614 10618 10620 10624 10633 10640 10642 10642 10646 10654 10660 10665 10669 10671 10675 10679 10682 10685 10689 10692 10694 10696 10697 10697 10696 10695
10281 10277 10273 10269 10266 10263 10261 10259 10257 10255 10254 10254 10254 10254 10256 10258 10260 10262 10266 10270 10276 10279 10283 10287 10292 10299 10307 10313 10320 10327 10336 10349 10359 10366 10377 10390 10399 10411 10424 10435 10446 10459 10472 10486 10497 10503 10509 10515 10523 10533 10544 10556 10562 10567 10576 10579 10576 10582 10590 10596 10600 10603 10610 10616 10617 10622 10629 10633 10634 10635 10641 10649 10654 10659 10664 10667 10669 10674 10678 10681 10685 10687 10687 10688 10690 10690 10690 10691
10281 10277 10273 10269 10266 10264 10261 10260 10258 10256 10253 10252 10252 10253 10254 10256 10259 10263 10267 10272 10276 10279 10284 10289 10294 10301 10307 10312 10318 10325 10337 10348 10354 10361 10374 10387 10397 10409 10419 10429 10440 10451 10461 10474 10484 10491 10502 10515 10529 10540 10547 10553 10556 10562 10570 10568 10568 10577 10585 10592 10597 10599 10606 10610 10610 10615 10619 10621 10625 10630 10636 10642 10648 10654 10660 10663 10665 10668 10673 10678 10682 10681 10677 10678 10681 10682 10685 10687
10281 10277 10273 10269 10267 10264 10262 10260 10259 10257 10255 10252 10251 10252 10253 10255 10258 10262 10266 10270 10275 10280 10284 10289 10295 10301 10307 10313 10319 10324 10334 10344 10351 10361 10373 10385 10398 10410 10420 10432 10443 10452 10461 10472 10478 10487 10503 10516 10526 10534 10537 10543 10549 10555 10560 10561 10565 10574 10583 10592 10596 10596 10600 10603 10604 10608 10612 10615 10622 10627 10631 10637 10644 10650 10655 10659 10660 10662 10669 10675 10676 10674 10671 10672 10673 10676 10680 10682
10283 10278 10274 10271 10268 10266 10263 10261 10260 10259 10257 10255 10253 10252 10253 10254 10256 10260 10263 10267 10273 10279 10284 10288 10294 10300 10306 10313 10319 10326 10334 10341 10350 10363 10375 10384 10394 10405 10416 10428 10439 10448 10460 10471 10478 10489 10503 10514 10523 10528 10532 10541 10545 10547 10554 10559 10563 10574 10585 10590 10588 10587 10591 10596 10600 10604 10607 10613 10619 10623 10627 10633 10639 10644 10651 10656 10655 10658 10666 10670 10668 10666 10666 10666 10666 10670 10675 10676
10285 10280 10276 10273 10269 10267 10265 10263 10261 10260 10259 10257 10256 10255 10255 10255 10256 10259 10263 10267 10271 10278 10284 10289 10295 10301 10307 10312 10318 10327 10334 10340 10350 10363 10374 10384 10393 10402 10411 10421 10433 10445 10459 10469 10477 10487 10499 10507 10514 10519 10525 10533 10535 10539 10552 10558 10560 10573 10582 10579 10579 10583 10588 10594 10599 10602 10606 10612 10618 10620 10624 10631 10635 10639 10645 10650 10651 10655 10661 10661 10658 10658 10659 10659 10661 10666 10669 10670
10287 10281 10278 10275 10271 10269 10267 10265 10263 10262 10261 10260 10259 10259 10259 10260 10260 10262 10266 10269 10273 10278 10285 10291 10297 10303 10307 10312 10320 10329 10337 10344 10354 10362 10371 10383 10393 10402 10412 10423 10435 10447 10457 10463 10472 10485 10494 10499 10506 10512 10519 10525 10529 10540 10554 10556 10558 10571 10575 10573 10577 10583 10587 10592 10598 10601 10604 10610 10615 10616 10620 10628 10632 10635 10639 10642 10645 10651 10655 10652 10650 10650 10652 10654 10657 10661 10663 10664
10289 10284 10280 10277 10274 10271 10269 10267 10266 10264 10263 10262 10262 10262 10263 10264 10265 10266 10269 10272 10276 10281 10287 10294 10301 10306 10308 10313 10322 10332 10341 10349 10357 10365 10374 10383 10393 10403 10415 10427 10437 10446 10451 10459 10472 10483 10488 10496 10505 10509 10514 10521 10531 10544 10553 10552 10558 10569 10572 10572 10576 10581 10585 10590 10594 10597 10600 10606 10609 10611 10617 10624 10625 10628 10633 10634 10637 10645 10648 10646 10645 10645 10647 10650 10653 10655 10657 10658
10292 10287 10284 10280 10277 10274 10272 10270 10268 10267 10265 10264 10264 10265 10265 10267 10268 10270 10273 10276 10279 10283 10289 10296 10302 10307 10311 10316 10323 10333 10343 10351 10360 10369 10377 10384 10392 10403 10414 10423 10431 10439 10446 10458 10472 10480 10485 10496 10503 10505 10512 10524 10535 10544 10546 10548 10556 10565 10567 10568 10572 10578 10582 10586 10590 10595 10599 10603 10605 10607 10613 10617 10617 10621 10627 10627 10630 10638 10642 10641 10641 10641 10642 10645 10648 10650 10651 10653
10296 10292 10288 10284 10281 10278 10276 10273 10271 10270 10268 10268 10267 10268 10268 10270 10271 10274 10277 10280 10283 10287 10292 10297 10302 10308 10315 10320 10326 10334 10345 10354 10362 10369 10376 10384 10394 10404 10414 10422 10428 10435 10445 10458 10469 10475 10485 10497 10500 10504 10516 10527 10533 10537 10540 10545 10552 10558 10560 10562 10569 10575 10577 10583 10589 10593 10595 10598 10600 10602 10606 10609 10611 10616 10620 10621 10624 10630 10635 10636 10634 10635 10637 10638 10641 10644 10645 10648
10301 10296 10292 10288 10285 10282 10280 10277 10275 10273 10272 10271 10271 10271 10272 10273 10274 10276 10280 10283 10287 10291 10296 10300 10303 10308 10316 10323 10329 10337 10346 10356 10363 10370 10379 10388 10397 10407 10414 10421 10428 10435 10446 10458 10466 10474 10486 10496 10499 10507 10517 10523 10526 10530 10534 10541 10548 10553 10557 10561 10567 10571 10574 10581 10585 10586 10589 10591 10592 10597 10600 10604 10608 10612 10614 10617 10619 10622 10628 10630 10628 10628 10630 10632 10635 10637 10640 10642
10306 10301 10297 10293 10290 10287 10284 10281 10279 10278 10276 10275 10275 10275 10276 10278 10279 10281 10283 10287 10291 10295 10299 10303 10307 10311 10319 10327 10333 10339 10348 10356 10364 10372 10381 10388 10396 10404 10411 10419 10427 10438 10450 10459 10467 10476 10486 10493 10499 10508 10515 10518 10520 10525 10531 10540 10547 10551 10556 10560 10564 10567 10571 10576 10577 10578 10582 10585 10587 10592 10596 10600 10605 10607 10609 10612 10613 10615 10621 10625 10624 10624 10624 10626 10628 10631 10634 10637
10312 10307 10303 10299 10296 10292 10289 10286 10284 10282 10281 10280 10280 10280 10281 10283 10285 10286 10288 10290 10294 10298 10302 10306 10311 10315 10322 10330 10336 10343 10351 10357 10364 10373 10381 10389 10397 10403 10412 10421 10430 10441 10451 10459 10468 10478 10486 10493 10501 10509 10515 10519 10524 10531 10539 10545 10546 10548 10554 10557 10560 10564 10568 10571 10572 10574 10580 10584 10586 10588 10591 10596 10600 10601 10604 10607 10607 10609 10615 10620 10621 10620 10618 10618 10621 10625 10629 10632
10317 10312 10309 10305 10302 10298 10295 10292 10289 10287 10286 10285 10285 10285 10286 10288 10291 10292 10293 10295 10298 10302 10306 10311 10316 10320 10325 10334 10340 10346 10353 10359 10366 10375 10383 10391 10399 10407 10417 10425 10432 10441 10450 10460 10470 10478 10485 10494 10500 10506 10512 10517 10525 10532 10537 10539 10541 10545 10551 10555 10557 10560 10564 10567 10570 10574 10579 10583 10584 10585 10588 10594 10597 10598 10600 10601 10602 10605 10609 10613 10615 10614 10612 10612 10616 10621 10625 10628
10323 10319 10315 10312 10308 10305 10301 10299 10296 10293 10291 10290 10290 10291 10292 10293 10296 10298 10300 10302 10304 10308 10312 10317 10322 10325 10330 10338 10345 10349 10355 10362 10371 10381 10388 10394 10402 10412 10421 10427 10435 10445 10454 10464 10473 10479 10486 10493 10498 10501 10507 10513 10519 10524 10528 10533 10537 10542 10547 10551 10552 10555 10560 10564 10568 10572 10575 10578 10581 10581 10584 10590 10594 10594 10595 10596 10599 10602 10603 10606 10609 10610 10609 10608 10612 10617 10619 10622
10329 10325 10321 10318 10315 10312 10309 10306 10303 10299 10298 10297 10296 10297 10297 10299 10301 10304 10307 10309 10310 10314 10318 10323 10328 10332 10336 10344 10351 10357 10364 10372 10380 10388 10394 10402 10411 10418 10423 10428 10438 10449 10458 10466 10472 10478 10485 10492 10495 10500 10505 10509 10513 10518 10524 10529 10533 10537 10543 10547 10548 10552 10558 10562 10565 10567 10569 10574 10577 10577 10579 10585 10588 10588 10589 10591 10594 10596 10598 10601 10605 10607 10606 10606 10608 10611 10613 10616
10335 10331 10327 10325 10322 10319 10316 10313 10310 10307 10305 10304 10303 10303 10304 10306 10308 10309 10312 10315 10316 10319 10322 10327 10333 10339 10346 10354 10360 10366 10374 10381 10388 10394 10400 10408 10416 10420 10425 10433 10442 10450 10457 10464 10471 10477 10483 10488 10491 10496 10501 10504 10509 10516 10522 10525 10529 10535 10540 10543 10544 10548 10554 10557 10559 10561 10565 10569 10572 10573 10575 10580 10582 10583 10586 10587 10589 10593 10595 10597 10599 10600 10600 10601 10602 10604 10607 10610
10341 10336 10333 10331 10328 10325 10323 10320 10317 10315 10313 10311 10310 10310 10311 10313 10315 10317 10319 10321 10323 10327 10330 10334 10340 10345 10351 10359 10366 10371 10377 10382 10388 10395 10402 10409 10415 10419 10426 10435 10444 10451 10458 10464 10469 10473 10478 10483 10487 10491 10497 10502 10509 10516 10519 10522 10526 10532 10536 10538 10540 10545 10550 10553 10555 10559 10562 10565 10568 10569 10571 10575 10577 10580 10583 10583 10586 10590 10590 10590 10592 10594 10594 10596 10597 10598 10601 10604
10346 10342 10339 10336 10333 10331 10329 10327 10325 10322 10320 10319 10319 10318 10319 10321 10323 10326 10328 10329 10332 10335 10338 10344 10351 10355 10357 10363 10369 10374 10380 10385 10390 10395 10401 10407 10414 10421 10429 10437 10445 10452 10458 10463 10467 10470 10475 10481 10485 10490 10496 10502 10509 10515 10517 10519 10524 10530 10533 10536 10539 10543 10547 10550 10552 10556 10558 10561 10564 10566 10568 10570 10572 10575 10579 10581 10583 10584 10584 10585 10588 10589 10589 10590 10591 10593 10596 10599
10350 10347 10344 10341 10339 10337 10335 10334 10332 10330 10328 10327 10327 10327 10328 10329 10331 10334 10338 10339 10341 10343 10346 10350 10358 10364 10367 10370 10374 10379 10385 10391 10396 10400 10405 10411 10417 10423 10431 10439 10446 10451 10456 10461 10466 10470 10475 10481 10485 10490 10497 10502 10507 10511 10513 10516 10524 10529 10532 10535 10537 10540 10543 10546 10548 10552 10554 10557 10559 10562 10564 10566 10567 10570 10575 10579 10580 10579 10578 10579 10582 10584 10586 10586 10587 10589 10591 10594